Location: Chippis
(46.2810°N, 7.5429°E)
Time: 14:17:29
(UTC+00:00)

Daily predictions for brighter satellites

Satellite Brightness Start Highest point End
(mag) Time Altitude Azimuth Time Altitude Azimuth Time Altitude Azimuth
Cosmos 2074 Rocket 4.1 17:35:46 10° S 17:41:54 60° E 17:48:03 10° NNE
Cosmos 2154 Rocket 4.4 17:36:33 10° SSE 17:42:15 40° E 17:47:57 10° NNE
YAOGAN 1 2.9 17:39:35 10° SE 17:43:41 44° ENE 17:47:48 10° N
APEX 2.4 17:43:38 10° NNW 17:46:27 81° WSW 17:49:09 10° SSE
CZ-4 R/B 4.5 17:44:58 10° SSE 17:49:07 86° ENE 17:53:19 10° NNW
COSMO-SKYMED 1 2.7 17:45:46 10° NNE 17:50:09 87° WNW 17:54:29 10° SSW
GP-B 4.3 17:47:46 10° SE 17:51:05 21° ENE 17:54:25 10° NNE
Cosmos 1992 Rocket 4.4 17:49:32 10° S 17:54:24 41° ESE 17:59:19 10° NE
SL-16 R/B 2.2 17:49:18 10° SSW 17:54:54 66° ESE 18:00:32 10° NNE
Cosmos 2263 Rocket 2.9 17:49:39 10° NNW 17:55:08 59° WSW 18:00:35 10° S
Cosmos 1437 3.8 17:52:29 10° NNW 17:55:16 45° W 17:58:02 10° S
Meteor 1-18 Rocket 4.5 17:50:07 10° N 17:55:57 53° ENE 18:01:42 10° SSE
Cosmos 968 Rocket 3.5 17:50:47 10° NNW 17:56:05 76° ENE 18:01:21 10° SSE
ARGOS 3.4 17:51:36 10° SE 17:56:48 49° ENE 18:02:02 10° N
Cosmos 1486 Rocket 4.0 17:54:32 10° NNW 17:59:50 72° ENE 18:05:08 10° SSE
USA 234 4.1 17:54:18 10° ENE 17:59:53 29° SE 18:05:25 10° S
Cosmos 1515 3.8 17:56:31 10° N 18:00:17 53° ENE 18:04:01 10° SSE
Okean 1 3.4 17:56:24 10° N 18:00:22 53° ENE 18:04:19 10° SSE
Cosmos 1633 Rocket 3.0 17:57:59 10° S 18:02:23 75° E 18:06:50 10° NNE
Cosmos 2184 Rocket 4.0 17:56:19 10° S 18:02:28 82° E 18:08:43 10° N
SeaSat 1 3.1 17:58:31 10° NE 18:03:02 34° ESE 18:07:31 10° S
Okean 1-7 4.2 18:00:14 10° NNE 18:03:45 23° ENE 18:07:13 10° ESE
Cosmos 1707 Rocket 4.0 17:59:30 10° NNW 18:03:53 67° W 18:08:11 10° S
CZ-4 R/B 1.3 18:04:13 10° SSE 18:08:04 89° WSW 18:12:00 10° NNW
H-2A R/B 2.2 18:02:39 10° SSE 18:08:06 85° ENE 18:13:35 10° NNW
CZ-2C R/B 3.1 18:03:09 10° NNE 18:08:17 39° E 18:13:16 10° SSE
USA 305 4.3 18:06:58 10° WNW 18:10:48 31° N 18:14:38 10° NE
SAR-Lupe-4 3.8 18:07:24 10° NNE 18:10:53 45° E 18:14:19 10° S
IRS-1C Rocket 4.4 18:06:40 10° S 18:11:55 74° WSW 18:17:13 10° NNW
Gbstr 26 Del rocket 3.9 18:09:17 10° W 18:13:31 48° N 18:18:27 11° ENE
Cosmos 2237 4.4 18:08:43 10° S 18:14:13 51° ESE 18:19:47 10° NE
Meteor 1-20 Rocket 4.3 18:09:16 10° SSW 18:14:43 80° WNW 18:20:15 10° N
SL-4 R/B 2.6 18:12:56 10° WNW 18:16:15 35° N 18:18:38 15° ENE
USA 307 4.3 18:18:20 10° WNW 18:22:09 30° N 18:25:41 11° NE
ATLAS CENTAUR R/B 1.4 18:20:28 10° SSW 18:23:54 43° ESE 18:26:57 13° NE
USA 186 3.2 18:25:07 14° NE 18:25:07 14° NE 18:25:49 10° NNE
FALCON 9 DEB 3.3 18:20:49 10° NW 18:24:12 55° NNE 18:26:13 22° E
USA 306 4.3 18:21:48 10° WNW 18:25:35 29° N 18:28:56 12° NE
Cosmos 1354 Rocket 4.0 18:21:19 10° NNW 18:26:33 62° ENE 18:31:43 10° SSE
Okean-O 3.0 18:23:30 10° S 18:27:54 69° WSW 18:32:21 10° NNW
Cosmos 44 Rocket 3.8 18:22:43 10° NW 18:27:56 69° WSW 18:33:05 10° SSE
ERS-2 2.0 18:24:31 10° NNE 18:28:11 82° ESE 18:31:50 10° SSW
CSL-04 Rocket 3.7 18:23:43 10° SSE 18:29:15 74° ENE 18:34:45 10° N
Cosmos 1844 Rocket 2.7 18:24:43 10° NNW 18:30:15 62° ENE 18:35:46 10° SE
SAR-Lupe-1 4.0 18:26:44 10° NNE 18:30:21 83° ESE 18:33:55 10° SSW
Cosmos 2084 Rocket 3.5 18:26:02 10° NW 18:30:23 83° SW 18:34:54 10° SE
CSL-04 Debris 4.1 18:25:10 10° SSE 18:30:35 81° ENE 18:36:05 10° NNW
USA 308 4.3 18:29:02 10° WNW 18:32:49 29° N 18:35:51 14° NE
Cosmos 1666 3.3 18:30:19 10° SSE 18:33:37 31° E 18:36:58 10° NNE
HJ-1C 3.6 18:32:34 10° S 18:35:52 71° WSW 18:39:10 10° NNW
Cosmos 1503 Rocket 3.9 18:31:33 10° NNW 18:36:47 85° ENE 18:41:57 10° SSE
Cosmos 2341 Rocket 4.1 18:31:26 10° SSE 18:37:32 55° E 18:43:39 10° NNE
Meteor 1-5 Rocket 4.2 18:32:44 10° SSE 18:37:53 51° E 18:43:12 10° NNE
PSLV R/B 4.4 18:35:13 10° N 18:39:17 62° WNW 18:43:16 10° SSW
Cosmos 1470 Rocket 3.8 18:37:09 10° SSW 18:41:36 75° W 18:46:05 10° N
Cosmos 1844 3.7 18:36:19 10° NNW 18:42:05 64° ENE 18:46:58 14° SE
Okean 3 4.4 18:38:42 10° NNE 18:42:23 28° ENE 18:42:56 27° E
CZ-4B R/B 4.3 18:40:59 10° NNW 18:43:07 18° WNW 18:45:15 10° WSW
Cosmos 2360 Rocket 2.1 18:38:38 10° SSW 18:44:15 74° ESE 18:49:56 10° NNE
Ariane Rocket 3.6 18:42:04 21° ESE 18:44:44 36° ENE 18:49:23 10° N
Cosmos 2278 Rocket 3.5 18:43:00 10° N 18:47:16 21° NE 18:48:36 19° ENE
Cosmos 1500 3.4 18:48:37 10° SSW 18:52:20 70° W 18:56:04 10° N
Meteor 2-4 Rocket 3.8 18:48:15 10° NNW 18:54:07 87° WSW 19:00:03 10° S
Cosmos 1703 Rocket 3.4 18:49:55 10° N 18:54:20 77° E 18:58:41 10° SSE
Cosmos 2333 Rocket 2.6 18:49:13 10° S 18:54:27 40° ESE 18:59:44 10° NE
Cosmos 2218 Rocket 4.2 18:50:01 10° SSE 18:56:08 51° E 19:02:17 10° NNE
SL-08 RB Rocket 4.0 18:52:02 10° S 18:56:30 68° W 19:01:04 10° NNW
Cosmos 1689 Rocket 4.0 18:54:02 10° N 18:56:38 31° WNW 18:59:14 10° SW
Cosmos 1933 Rocket 3.9 18:58:12 10° SSW 19:02:32 67° W 19:06:55 10° N
Aureole 2 Rocket 4.2 19:03:06 10° NW 19:05:07 21° WSW 19:06:52 11° SSW
Resurs 01 Rocket 3.0 19:12:41 23° NE 19:12:41 23° NE 19:15:08 10° N
Cosmos 2242 Rocket 4.1 19:07:54 10° NNW 19:12:21 61° W 19:16:45 10° S
Cosmos 864 Rocket 4.4 19:06:52 10° S 19:12:53 62° E 19:19:01 10° NNE
Cosmos 2322 Rocket 3.4 19:09:10 10° SW 19:14:27 41° NW 19:19:47 10° NNE
Lacrosse 4 Rocket 2.7 19:12:08 10° S 19:14:29 28° SSE 19:14:29 28° SSE
Abrixas rocket 3.7 19:14:45 10° WNW 19:16:07 26° WNW 19:16:07 26° WNW
Cosmos 1959 Rocket 4.3 19:12:16 10° S 19:18:18 71° E 19:24:24 10° NNE
SME Rocket 4.1 19:10:20 10° NNE 19:18:33 70° ESE 19:23:49 10° S
Cosmos 192 4.2 19:16:46 10° SSW 19:21:39 72° ESE 19:26:33 10° NNE
SJ-6B 2.9 19:22:30 44° S 19:23:45 80° WSW 19:27:50 10° NNW
COSMOS 2428 2.8 19:19:00 10° S 19:24:27 50° ESE 19:24:51 49° E
ASTEX 1 3.2 19:22:46 10° N 19:27:41 77° E 19:30:11 29° S
GP-B 4.4 19:23:57 10° SSW 19:28:07 40° W 19:32:19 10° NNW
MOS 1 4.2 19:25:33 30° SSE 19:28:34 83° ENE 19:34:16 10° NNW
Meteor 1-23 Rocket 4.2 19:24:24 10° N 19:29:56 57° ENE 19:30:27 55° E
Cosmos 2219 Rocket 2.0 19:25:53 10° SSW 19:31:24 67° ESE 19:36:59 10° NNE
Meteor 1-11 Rocket 3.6 19:25:50 10° S 19:31:34 82° E 19:37:12 10° NNE
OBJECT-B 2.4 19:36:24 31° NNW 19:36:24 31° NNW 19:38:17 10° NNW
Resurs 1-3 3.7 19:38:47 65° N 19:38:47 65° N 19:42:37 10° N
SL-16 R/B 4.3 19:34:55 10° WSW 19:39:30 25° NW 19:44:08 10° N
SeaSat 1 3.8 19:35:59 10° NNE 19:40:33 39° NW 19:45:07 10° WSW
SJ 16-02 2.5 19:36:51 10° N 19:39:34 33° NNE 19:39:34 33° NNE
USA 234 3.2 19:39:54 31° NE 19:43:24 89° NW 19:49:57 10° SW
Cosmos 1066 Rocket 4.2 19:38:05 10° NNW 19:43:50 87° W 19:45:41 46° S
CZ-2C R/B 4.3 19:43:36 10° N 19:48:28 33° WNW 19:53:12 10° SW
Meteor 2-20 Rocket 4.5 19:43:27 10° N 19:49:08 58° ENE 19:49:08 58° ENE
Cosmos 2322 3.9 19:45:45 10° SW 19:51:27 71° WNW 19:57:12 10° NNE
USA 305 4.3 19:47:44 10° NW 19:50:56 31° N 19:50:56 31° N
BREEZE-M DEB (TANK) 3.0 19:48:44 10° WNW 19:51:09 59° NNW 19:51:09 59° NNW
SL-4 R/B 3.8 19:52:35 10° WNW 19:54:13 25° WNW 19:54:13 25° WNW
Gbstr 26 Del rocket 4.0 19:56:22 10° WNW 20:00:59 52° N 20:00:59 52° N
ATLAS CENTAUR R/B 3.4 20:00:05 10° W 20:02:57 21° NW 20:03:11 21° NNW
SPOT 3 Rocket 4.1 20:18:37 55° NW 20:18:37 55° NW 20:22:47 10° NNW
NOSS 3-3 (A) 4.4 20:10:41 10° NW 20:18:11 77° NE 20:18:42 74° E
NOSS 3-3 (C) 4.4 20:10:47 10° NW 20:18:17 76° NE 20:18:47 73° E
Cosmos 2360 Rocket 4.4 20:24:27 10° W 20:28:51 23° NW 20:33:18 10° N
Cosmos 2278 Rocket 2.9 20:26:21 10° NNW 20:30:28 49° NW 20:30:28 49° NW
Cosmos 2333 Rocket 3.5 20:33:30 10° WSW 20:38:45 37° NW 20:44:04 10° NNE
Resurs 01 Rocket 4.1 20:50:14 19° NW 20:50:14 19° NW 20:51:48 10° NNW
Cosmos 1943 Rocket 4.2 20:46:22 10° N 20:48:24 20° N 20:48:24 20° N
Cosmos 2219 Rocket 4.2 21:11:23 10° W 21:15:52 24° NW 21:20:23 10° N
USA 234 4.3 21:27:15 39° NW 21:27:15 39° NW 21:32:07 10° W
